ARG1708 SABE-SAAR

Flight info

Callsign ARG1708
Flight time 0h 39m
Altitude 24000
Route ATOVO4B ATOVO W5 ESKON
Aircraft B738/M-MSDFGHILRVWS/LB1

Departure

Time 2026-04-26 19:53
Airport Aeroparque Jorge Newbery (SABE)

Arrival

Time 2026-04-26 20:32
Airport Rosario Islas Malvinas International Airport (SAAR)
Time Latitude Longitude Altitude Speed Heading
2026-04-26 19:28 -34.55802 -58.41450 26 ft 0 kts 207°
2026-04-26 19:42 -34.55801 -58.41449 26 ft 1 kts 207°
2026-04-26 19:42 -34.55788 -58.41440 26 ft 3 kts 220°
2026-04-26 19:42 -34.55776 -58.41423 26 ft 3 kts 250°
2026-04-26 19:43 -34.55773 -58.41401 26 ft 3 kts 286°
2026-04-26 19:43 -34.55779 -58.41384 26 ft 1 kts 303°
2026-04-26 19:43 -34.55780 -58.41383 26 ft 0 kts 303°
2026-04-26 19:45 -34.55771 -58.41400 26 ft 3 kts 303°
2026-04-26 19:46 -34.55759 -58.41422 26 ft 3 kts 303°
2026-04-26 19:46 -34.55748 -58.41444 26 ft 3 kts 300°
2026-04-26 19:46 -34.55738 -58.41465 26 ft 3 kts 299°
2026-04-26 19:46 -34.55729 -58.41485 26 ft 3 kts 299°
2026-04-26 19:47 -34.55717 -58.41516 26 ft 6 kts 281°
2026-04-26 19:47 -34.55729 -58.41553 26 ft 7 kts 226°
2026-04-26 19:47 -34.55783 -58.41595 26 ft 7 kts 182°
2026-04-26 19:47 -34.55815 -58.41553 26 ft 7 kts 117°
2026-04-26 19:48 -34.55839 -58.41496 26 ft 9 kts 117°
2026-04-26 19:48 -34.55872 -58.41417 26 ft 10 kts 117°
2026-04-26 19:48 -34.55904 -58.41341 26 ft 10 kts 117°
2026-04-26 19:48 -34.55938 -58.41270 26 ft 10 kts 127°
2026-04-26 19:49 -34.55978 -58.41206 26 ft 9 kts 127°
2026-04-26 19:49 -34.56016 -58.41144 26 ft 9 kts 127°
2026-04-26 19:49 -34.56055 -58.41084 26 ft 10 kts 128°
2026-04-26 19:49 -34.56095 -58.41021 26 ft 9 kts 127°
2026-04-26 19:50 -34.56132 -58.40959 26 ft 9 kts 124°
2026-04-26 19:50 -34.56166 -58.40891 26 ft 9 kts 106°
2026-04-26 19:50 -34.56171 -58.40823 26 ft 9 kts 124°
2026-04-26 19:50 -34.56210 -58.40753 26 ft 10 kts 123°
2026-04-26 19:51 -34.56248 -58.40685 26 ft 10 kts 124°
2026-04-26 19:51 -34.56284 -58.40619 26 ft 9 kts 123°
2026-04-26 19:51 -34.56324 -58.40560 26 ft 9 kts 137°
2026-04-26 19:51 -34.56368 -58.40511 26 ft 8 kts 137°
2026-04-26 19:52 -34.56410 -58.40465 26 ft 8 kts 138°
2026-04-26 19:52 -34.56451 -58.40421 26 ft 8 kts 138°
2026-04-26 19:52 -34.56498 -58.40374 26 ft 9 kts 155°
2026-04-26 19:52 -34.56548 -58.40403 26 ft 9 kts 243°
2026-04-26 19:53 -34.56498 -58.40542 26 ft 44 kts 304°
2026-04-26 19:53 -34.56166 -58.41138 26 ft 124 kts 304°
2026-04-26 19:53 -34.55547 -58.42247 70 ft 187 kts 304°
2026-04-26 19:53 -34.54772 -58.43624 734 ft 202 kts 304°
2026-04-26 19:54 -34.53766 -58.44736 1901 ft 195 kts 335°
2026-04-26 19:54 -34.52428 -58.45123 2640 ft 212 kts 348°
2026-04-26 19:54 -34.50903 -58.44700 3082 ft 241 kts 15°
2026-04-26 19:54 -34.49458 -58.43555 3757 ft 252 kts 30°
2026-04-26 19:55 -34.48039 -58.42222 4312 ft 269 kts 31°
2026-04-26 19:55 -34.46515 -58.40746 4788 ft 290 kts 32°
2026-04-26 19:55 -34.44896 -58.39173 5392 ft 305 kts 32°
2026-04-26 19:55 -34.43168 -58.37652 6142 ft 305 kts 20°
2026-04-26 19:56 -34.41221 -58.36878 6960 ft 286 kts 354°
2026-04-26 19:56 -34.39345 -58.37072 7835 ft 259 kts 328°
2026-04-26 19:56 -34.37893 -58.38081 8743 ft 231 kts 304°
2026-04-26 19:56 -34.36870 -58.39518 9699 ft 221 kts 297°
2026-04-26 19:57 -34.35914 -58.40966 10593 ft 220 kts 295°
2026-04-26 19:57 -34.34977 -58.42454 11283 ft 228 kts 295°
2026-04-26 19:57 -34.33995 -58.44053 11705 ft 245 kts 295°
2026-04-26 19:57 -34.32953 -58.45776 12048 ft 263 kts 295°
2026-04-26 19:58 -34.31841 -58.47635 12405 ft 279 kts 295°
2026-04-26 19:58 -34.30710 -58.49544 13065 ft 284 kts 295°
2026-04-26 19:58 -34.29566 -58.51488 13910 ft 283 kts 294°
2026-04-26 19:58 -34.28414 -58.53457 14589 ft 288 kts 294°
2026-04-26 19:59 -34.27248 -58.55458 15254 ft 292 kts 294°
2026-04-26 19:59 -34.26076 -58.57476 15913 ft 296 kts 294°
2026-04-26 19:59 -34.24885 -58.59529 16554 ft 299 kts 294°
2026-04-26 19:59 -34.23684 -58.61603 17177 ft 303 kts 294°
2026-04-26 20:00 -34.22487 -58.63672 17776 ft 306 kts 294°
2026-04-26 20:00 -34.21258 -58.65797 18365 ft 310 kts 294°
2026-04-26 20:00 -34.20018 -58.67946 18933 ft 313 kts 294°
2026-04-26 20:00 -34.18781 -58.70127 19490 ft 317 kts 294°
2026-04-26 20:01 -34.17534 -58.72323 20153 ft 316 kts 294°
2026-04-26 20:01 -34.16291 -58.74504 20889 ft 314 kts 294°
2026-04-26 20:01 -34.15054 -58.76668 21574 ft 313 kts 294°
2026-04-26 20:01 -34.13811 -58.78837 22229 ft 313 kts 294°
2026-04-26 20:02 -34.12576 -58.80990 22883 ft 312 kts 294°
2026-04-26 20:02 -34.11334 -58.83150 23460 ft 313 kts 294°
2026-04-26 20:02 -34.10085 -58.85320 23785 ft 319 kts 295°
2026-04-26 20:02 -34.09241 -58.86783 23840 ft 321 kts 295°
2026-04-26 20:03 -34.07540 -58.89732 23870 ft 321 kts 295°
2026-04-26 20:03 -34.06242 -58.91980 23878 ft 332 kts 295°
2026-04-26 20:03 -34.04895 -58.94311 23878 ft 343 kts 295°
2026-04-26 20:03 -34.03508 -58.96708 23877 ft 354 kts 295°
2026-04-26 20:04 -34.02099 -58.99142 23877 ft 363 kts 296°
2026-04-26 20:04 -34.00637 -59.01666 23877 ft 371 kts 296°
2026-04-26 20:04 -33.99147 -59.04235 23876 ft 377 kts 296°
2026-04-26 20:04 -33.97638 -59.06837 23876 ft 379 kts 296°
2026-04-26 20:05 -33.96128 -59.09437 23876 ft 378 kts 296°
2026-04-26 20:05 -33.94622 -59.12030 23876 ft 378 kts 296°
2026-04-26 20:05 -33.93116 -59.14619 23876 ft 378 kts 296°
2026-04-26 20:05 -33.91603 -59.17220 23876 ft 378 kts 296°
2026-04-26 20:06 -33.90098 -59.19804 23876 ft 378 kts 296°
2026-04-26 20:06 -33.88587 -59.22397 23876 ft 378 kts 296°
2026-04-26 20:06 -33.87079 -59.24984 23876 ft 378 kts 296°
2026-04-26 20:06 -33.85565 -59.27578 23876 ft 378 kts 296°
2026-04-26 20:07 -33.84072 -59.30135 23876 ft 378 kts 296°
2026-04-26 20:07 -33.82560 -59.32721 23876 ft 378 kts 296°
2026-04-26 20:07 -33.81048 -59.35307 23876 ft 378 kts 296°
2026-04-26 20:07 -33.79534 -59.37895 23876 ft 378 kts 296°
2026-04-26 20:08 -33.78023 -59.40474 23876 ft 378 kts 296°
2026-04-26 20:08 -33.76476 -59.43037 23872 ft 382 kts 299°
2026-04-26 20:08 -33.74620 -59.45380 23878 ft 390 kts 304°
2026-04-26 20:08 -33.72708 -59.47690 23876 ft 389 kts 304°
2026-04-26 20:09 -33.70796 -59.49987 23876 ft 389 kts 304°
2026-04-26 20:09 -33.68881 -59.52286 23876 ft 389 kts 304°
2026-04-26 20:09 -33.66963 -59.54586 23876 ft 389 kts 304°
2026-04-26 20:09 -33.65049 -59.56882 23876 ft 389 kts 304°
2026-04-26 20:10 -33.63133 -59.59178 23876 ft 389 kts 304°
2026-04-26 20:10 -33.61213 -59.61476 23876 ft 389 kts 304°
2026-04-26 20:10 -33.59292 -59.63775 23876 ft 389 kts 304°
2026-04-26 20:10 -33.57371 -59.66073 23876 ft 389 kts 304°
2026-04-26 20:11 -33.55453 -59.68365 23876 ft 389 kts 304°
2026-04-26 20:11 -33.53534 -59.70656 23876 ft 389 kts 304°
2026-04-26 20:11 -33.51620 -59.72940 23732 ft 384 kts 304°
2026-04-26 20:12 -33.47887 -59.77416 22133 ft 378 kts 303°
2026-04-26 20:12 -33.46072 -59.79604 21498 ft 372 kts 303°
2026-04-26 20:12 -33.44232 -59.81815 20829 ft 368 kts 303°
2026-04-26 20:12 -33.42463 -59.83935 20269 ft 361 kts 303°
2026-04-26 20:13 -33.40719 -59.86022 20020 ft 347 kts 303°
2026-04-26 20:13 -33.39044 -59.88022 19768 ft 334 kts 302°
2026-04-26 20:13 -33.37423 -59.89956 19515 ft 322 kts 302°
2026-04-26 20:13 -33.35863 -59.91816 19263 ft 312 kts 302°
2026-04-26 20:14 -33.34351 -59.93616 18999 ft 302 kts 301°
2026-04-26 20:14 -33.32874 -59.95374 18610 ft 297 kts 301°
2026-04-26 20:14 -33.31424 -59.97099 18217 ft 293 kts 301°
2026-04-26 20:14 -33.29990 -59.98804 17825 ft 288 kts 301°
2026-04-26 20:15 -33.28577 -60.00482 17435 ft 284 kts 301°
2026-04-26 20:15 -33.27182 -60.02139 17046 ft 280 kts 301°
2026-04-26 20:15 -33.25804 -60.03774 16664 ft 277 kts 301°
2026-04-26 20:15 -33.24451 -60.05380 16287 ft 273 kts 301°
2026-04-26 20:16 -33.23109 -60.06971 15912 ft 270 kts 301°
2026-04-26 20:16 -33.21786 -60.08539 15542 ft 266 kts 301°
2026-04-26 20:16 -33.20480 -60.10086 15177 ft 263 kts 301°
2026-04-26 20:16 -33.19188 -60.11616 14817 ft 260 kts 301°
2026-04-26 20:17 -33.17908 -60.13131 14464 ft 257 kts 301°
2026-04-26 20:17 -33.16649 -60.14620 14118 ft 254 kts 300°
2026-04-26 20:17 -33.15397 -60.16101 13775 ft 251 kts 300°
2026-04-26 20:17 -33.14579 -60.17067 13551 ft 249 kts 300°
2026-04-26 20:18 -33.12951 -60.18991 13104 ft 245 kts 301°
2026-04-26 20:18 -33.11741 -60.20420 12769 ft 242 kts 301°
2026-04-26 20:18 -33.10566 -60.21806 12446 ft 240 kts 301°
2026-04-26 20:18 -33.09383 -60.23203 12120 ft 238 kts 301°
2026-04-26 20:19 -33.08211 -60.24586 11799 ft 236 kts 301°
2026-04-26 20:19 -33.07051 -60.25953 11482 ft 234 kts 301°
2026-04-26 20:19 -33.05893 -60.27318 11165 ft 233 kts 301°
2026-04-26 20:19 -33.04746 -60.28669 10852 ft 231 kts 301°
2026-04-26 20:20 -33.03606 -60.30012 10543 ft 230 kts 301°
2026-04-26 20:20 -33.02470 -60.31349 10238 ft 228 kts 302°
2026-04-26 20:20 -33.01346 -60.32671 9995 ft 225 kts 302°
2026-04-26 20:20 -33.00260 -60.33950 9922 ft 216 kts 301°
2026-04-26 20:21 -32.99161 -60.35242 9757 ft 231 kts 300°
2026-04-26 20:21 -32.97980 -60.36628 9474 ft 246 kts 301°
2026-04-26 20:21 -32.96741 -60.38095 9157 ft 253 kts 301°
2026-04-26 20:21 -32.95494 -60.39574 8831 ft 253 kts 302°
2026-04-26 20:22 -32.94244 -60.41049 8506 ft 253 kts 302°
2026-04-26 20:22 -32.92994 -60.42519 8184 ft 252 kts 303°
2026-04-26 20:22 -32.91746 -60.43984 7858 ft 251 kts 303°
2026-04-26 20:22 -32.90503 -60.45441 7538 ft 250 kts 303°
2026-04-26 20:23 -32.89262 -60.46892 7218 ft 249 kts 303°
2026-04-26 20:23 -32.88029 -60.48332 6899 ft 248 kts 303°
2026-04-26 20:23 -32.86797 -60.49771 6579 ft 247 kts 304°
2026-04-26 20:23 -32.85572 -60.51200 6262 ft 246 kts 304°
2026-04-26 20:24 -32.84356 -60.52619 5947 ft 245 kts 304°
2026-04-26 20:24 -32.83144 -60.54033 5637 ft 243 kts 304°
2026-04-26 20:24 -32.81942 -60.55434 5331 ft 241 kts 304°
2026-04-26 20:24 -32.80767 -60.56802 5040 ft 239 kts 305°
2026-04-26 20:25 -32.79586 -60.58178 4733 ft 237 kts 305°
2026-04-26 20:25 -32.79189 -60.58640 4627 ft 237 kts 305°
2026-04-26 20:25 -32.77227 -60.60924 4210 ft 231 kts 304°
2026-04-26 20:25 -32.76105 -60.62229 4144 ft 220 kts 304°
2026-04-26 20:26 -32.75053 -60.63451 4085 ft 210 kts 303°
2026-04-26 20:26 -32.74102 -60.64681 3981 ft 192 kts 292°
2026-04-26 20:26 -32.73643 -60.66069 3797 ft 175 kts 274°
2026-04-26 20:26 -32.73479 -60.67482 3561 ft 170 kts 269°
2026-04-26 20:27 -32.73345 -60.68866 3438 ft 165 kts 269°
2026-04-26 20:27 -32.73239 -60.69736 3417 ft 156 kts 270°
2026-04-26 20:27 -32.73016 -60.71427 3367 ft 156 kts 270°
2026-04-26 20:27 -32.72908 -60.72283 3343 ft 158 kts 268°
2026-04-26 20:28 -32.73097 -60.73518 3270 ft 153 kts 236°
2026-04-26 20:28 -32.73983 -60.74225 3146 ft 160 kts 208°
2026-04-26 20:28 -32.75045 -60.74653 2872 ft 159 kts 204°
2026-04-26 20:28 -32.76071 -60.74999 2639 ft 147 kts 201°
2026-04-26 20:29 -32.77037 -60.75267 2419 ft 140 kts 199°
2026-04-26 20:29 -32.77996 -60.75510 2275 ft 146 kts 198°
2026-04-26 20:29 -32.79026 -60.75761 2065 ft 155 kts 195°
2026-04-26 20:29 -32.80066 -60.76010 1874 ft 148 kts 197°
2026-04-26 20:30 -32.81030 -60.76241 1668 ft 136 kts 197°
2026-04-26 20:30 -32.81931 -60.76455 1478 ft 128 kts 197°
2026-04-26 20:30 -32.82791 -60.76660 1318 ft 124 kts 198°
2026-04-26 20:30 -32.83624 -60.76858 1165 ft 125 kts 198°
2026-04-26 20:31 -32.84509 -60.77068 998 ft 131 kts 197°
2026-04-26 20:31 -32.85418 -60.77284 819 ft 138 kts 195°
2026-04-26 20:31 -32.86363 -60.77538 612 ft 143 kts 195°
2026-04-26 20:31 -32.87376 -60.77770 407 ft 148 kts 192°
2026-04-26 20:32 -32.88393 -60.78019 296 ft 152 kts 190°
2026-04-26 20:32 -32.89428 -60.78256 98 ft 149 kts 191°
2026-04-26 20:32 -32.90280 -60.78451 93 ft 86 kts 191°
2026-04-26 20:32 -32.90724 -60.78554 93 ft 38 kts 191°
2026-04-26 20:33 -32.90885 -60.78554 93 ft 17 kts 173°
2026-04-26 20:33 -32.90996 -60.78526 93 ft 16 kts 158°
2026-04-26 20:33 -32.91092 -60.78470 93 ft 15 kts 142°
2026-04-26 20:33 -32.91172 -60.78396 93 ft 14 kts 142°
2026-04-26 20:34 -32.91247 -60.78328 93 ft 13 kts 142°
2026-04-26 20:34 -32.91328 -60.78252 93 ft 16 kts 142°
2026-04-26 20:34 -32.91411 -60.78174 93 ft 15 kts 141°
2026-04-26 20:34 -32.91492 -60.78104 93 ft 14 kts 159°
2026-04-26 20:35 -32.91571 -60.78116 93 ft 9 kts 201°
2026-04-26 20:35 -32.91615 -60.78133 93 ft 5 kts 183°
2026-04-26 20:35 -32.91633 -60.78108 93 ft 2 kts 109°
2026-04-26 20:35 -32.91636 -60.78097 93 ft 0 kts 110°
2026-04-26 20:36 -32.91639 -60.78090 93 ft 0 kts 110°